CZ-6A DEB, 60837

Orbit data source: Space-Track

CZ-6A DEB, 60837 is space debris in LEO originally from a launch on Tue, 06 Aug 2024 UTC launched from the Taiyaun Space Center, China (TSC). Debris objects in space refer to the collection of defunct objects orbiting the Earth. Examples of debris include non-operational satellites, rocket bodies, and fragments generated from explosions, collisions, or faulty payload assembly.

Loading next visibility...
Identifier
60837, 2024-140HQ
Orbit
LEO
Country
Flag of CNCN / PRC
Related business
Manufacturer
SAST
Mission
Spacecraft
Bus & Motor
Unknown
Mass
Unknown
Launch date (UTC)
2024-08-06 (1 year ago)
Launch vehicle
Unknown
Launch site
Taiyaun Space Center, China (TSC)
Object type
Payload
Rocket body
Debris
Shape & HBR
Unknown shape, 0.1 m
Radar Cross Section
Small (<0.1 m²)

Expand to show TLE details & history
Last TLE update: 7 hours ago

TLE from 7 hours ago
0 CZ-6A DEB
1 60837U 24140HQ  25349.86471413  .00000803  00000-0  39238-3 0  9991
2 60837  89.1757 305.8763 0066788  73.2571 287.5932 14.15894727 69273
Epoch: 2025-12-15T20:45Z
TLE epoch observation values (Epoch: 2025-12-15T20:45:11.300Z)
Latitude
-0.00001°
Longitude
-90.17794°
Altitude
828.039 km
Speed
7.446 km/s
True Right ascension
20h 23m 30s
True Declination
0° 00' 00"
Sunlit
Object was in daylight at epoch
Visualization orbit readout
Latitude
Unknown
Longitude
Unknown
Altitude
Unknown
Speed
Unknown
Apparent Right ascension
Unknown
Apparent Declination
Unknown
Sunlit
N/A
Visualization observer readout
Local Sidereal Time
02:29:07
Azimuth
Unknown
Elevation
Unknown
Doppler factor
Unknown
Orbital elements
Apogee altitude
884.409 km
Perigee altitude
788.043 km
Semi-major axis
7,214.363 km
Eccentricity
0.00668
Inclination
89.1757°
RAAN
305.8763°
Arg. of periapsis
73.2571°
True anomaly
286.86184°
Mean anomaly
287.5932°
Eccentric anomaly
287.2277°
Mean motion
3.54198 °/min
Orbital period
101.64 mins
BSTAR
0.00039238
Loading maneuver chart data...
Computing Atmospheric mass density...
Loading historical data...
Loading historical data...
Loading historical data...
Loading historical data...
Loading historical data...
Loading historical data...
Loading historical data...

Documentation

Showing up to 5 results
|